QPF
0.00 0.00 0.00 0.00 0.00 0.00 0.00 0.00 0.00 0.00 0.00 0.00 0.00 0.00 0.00 0.00 0.00 0.00 0.00 0.00 0.00 0.00 0.00 0.00 0.00 0.00 0.00 0.00 0.00 0.01 0.01 0.01 0.04 0.02 0.01 0.01 0.05 0.05 0.00 0.00 0.03 0.02 0.03
0.00 0.00 0.00 0.00 0.00 0.00 0.00 0.00 0.00 0.00 0.00 0.00 0.00 0.00 0.00 0.00 0.00 0.00 0.00 0.00 0.00 0.00 0.00 0.00 0.00 0.00 0.00 0.00 0.00 0.00 0.00 0.00 0.01 0.03 0.01 0.01 0.01 0.00 0.02 0.06 0.10 0.11 0.06
0.00 0.00 0.00 0.00 0.00 0.00 0.00 0.00 0.00 0.00 0.00 0.00 0.00 0.00 0.00 0.00 0.00 0.00 0.00 0.00 0.00 0.00 0.00 0.00 0.00 0.00 0.00 0.00 0.00 0.00 0.00 0.00 0.00 0.00 0.00 0.00 0.00 0.00 0.00 0.00 0.01 0.02 0.01
0.00 0.00 0.00 0.00 0.00 0.00 0.00 0.00 0.00 0.00 0.00 0.00 0.00 0.00 0.00 0.00 0.00 0.00 0.00 0.00 0.00 0.00 0.00 0.00 0.00 0.00 0.00 0.00 0.00 0.00 0.00 0.00 0.00 0.00 0.00 0.00 0.00 0.00 0.00 0.00 0.00 0.00 0.00
0.00 0.00 0.00 0.00 0.00 0.00 0.00 0.00 0.00 0.00 0.00 0.00 0.00 0.00 0.00 0.00 0.00 0.00 0.00 0.00 0.00 0.00 0.00 0.00 0.00 0.00 0.00 0.00 0.00 0.00 0.00 0.00 0.00 0.00 0.00 0.00 0.00 0.00 0.00 0.00 0.00 0.00 0.00
0.00 0.00 0.00 0.00 0.00 0.00 0.00 0.00 0.00 0.00 0.00 0.00 0.00 0.00 0.00 0.00 0.00 0.00 0.00 0.00 0.00 0.00 0.00 0.00 0.00 0.00 0.00 0.00 0.00 0.00 0.00 0.00 0.00 0.00 0.00 0.00 0.00 0.00 0.00 0.00 0.00 0.00 0.00
0.00 0.00 0.00 0.00 0.00 0.00 0.00 0.00 0.00 0.00 0.00 0.00 0.00 0.00 0.00 0.00 0.00 0.00 0.00 0.00 0.00 0.00 0.00 0.00 0.00 0.00 0.00 0.00 0.00 0.00 0.00 0.00 0.00 0.00 0.00 0.00 0.00 0.00 0.00 0.00 0.00 0.00 0.00
0.00 0.00 0.00 0.00 0.00 0.00 0.00 0.00 0.00 0.00 0.00 0.00 0.00 0.00 0.00 0.00 0.00 0.00 0.00 0.00 0.00 0.00 0.00 0.00 0.00 0.00 0.00 0.00 0.00 0.00 0.00 0.00 0.00 0.00 0.00 0.00 0.00 0.00 0.00 0.00 0.00 0.00 0.00
0.00 0.00 0.00 0.00 0.00 0.00 0.00 0.00 0.00 0.00 0.00 0.00 0.00 0.00 0.00 0.00 0.00 0.00 0.00 0.00 0.00 0.00 0.00 0.00 0.00 0.00 0.00 0.00 0.00 0.00 0.00 0.00 0.00 0.00 0.00 0.00 0.00 0.00 0.00 0.00 0.00 0.00 0.00
0.00 0.00 0.00 0.00 0.00 0.00 0.00 0.00 0.00 0.00 0.00 0.00 0.00 0.00 0.00 0.00 0.00 0.00 0.00 0.00 0.00 0.00 0.00 0.00 0.00 0.00 0.00 0.00 0.00 0.00 0.00 0.00 0.00 0.00 0.00 0.00 0.00 0.00 0.00 0.00 0.00 0.00 0.00
0.00 0.00 0.00 0.00 0.00 0.00 0.00 0.00 0.00 0.00 0.00 0.00 0.00 0.00 0.00 0.00 0.00 0.00 0.00 0.00 0.00 0.00 0.00 0.00 0.00 0.00 0.00 0.00 0.00 0.00 0.00 0.00 0.00 0.00 0.00 0.00 0.00 0.00 0.00 0.00 0.01 0.02 0.00
0.00 0.00 0.00 0.00 0.00 0.00 0.00 0.00 0.00 0.00 0.00 0.00 0.00 0.00 0.00 0.00 0.00 0.00 0.00 0.00 0.00 0.00 0.00 0.00 0.00 0.00 0.00 0.00 0.00 0.00 0.00 0.00 0.00 0.00 0.00 0.00 0.00 0.00 0.00 0.00 0.00 0.00 0.00
0.00 0.00 0.00 0.00 0.00 0.00 0.00 0.00 0.00 0.00 0.00 0.00 0.00 0.00 0.00 0.00 0.00 0.00 0.00 0.00 0.00 0.00 0.00 0.00 0.00 0.00 0.00 0.00 0.00 0.00 0.00 0.00 0.00 0.00 0.00 0.00 0.00 0.00 0.00 0.00 0.00 0.00 0.00
0.00 0.00 0.00 0.00 0.00 0.00 0.00 0.00 0.00 0.00 0.00 0.00 0.00 0.00 0.00 0.00 0.00 0.00 0.00 0.00 0.00 0.00 0.00 0.00 0.00 0.00 0.00 0.00 0.00 0.00 0.00 0.00 0.00 0.00 0.00 0.00 0.00 0.00 0.00 0.00 0.00 0.00 0.00
0.01 0.02 0.03 0.02 0.00 0.00 0.00 0.00 0.00 0.00 0.00 0.00 0.00 0.00 0.00 0.00 0.00 0.00 0.00 0.00 0.00 0.00 0.00 0.00 0.00 0.00 0.00 0.00 0.00 0.00 0.00 0.00 0.00 0.00 0.00 0.00 0.00 0.00 0.00 0.00 0.00 0.00 0.00
0.04 0.01 0.01 0.00 0.00 0.00 0.00 0.00 0.00 0.00 0.00 0.00 0.00 0.00 0.00 0.00 0.00 0.00 0.00 0.00 0.00 0.00 0.00 0.00 0.00 0.00 0.00 0.00 0.00 0.00 0.00 0.00 0.00 0.00 0.00 0.00 0.00 0.00 0.00 0.00 0.01 0.00 0.00
0.01 0.01 0.01 0.00 0.00 0.00 0.00 0.00 0.00 0.00 0.00 0.00 0.00 0.00 0.00 0.00 0.00 0.00 0.00 0.00 0.00 0.00 0.00 0.00 0.00 0.00 0.00 0.00 0.00 0.00 0.00 0.00 0.00 0.00 0.00 0.00 0.00 0.00 0.01 0.00 0.01 0.01 0.01
0.02 0.00 0.00 0.00 0.00 0.00 0.00 0.00 0.00 0.00 0.00 0.00 0.00 0.00 0.00 0.00 0.00 0.00 0.00 0.00 0.00 0.00 0.00 0.00 0.00 0.00 0.00 0.00 0.00 0.00 0.00 0.00 0.00 0.00 0.00 0.00 0.00 0.01 0.01 0.01 0.01 0.01 0.02
0.01 0.00 0.00 0.00 0.00 0.00 0.00 0.00 0.00 0.00 0.00 0.00 0.00 0.00 0.00 0.00 0.00 0.00 0.00 0.00 0.00 0.00 0.00 0.00 0.00 0.00 0.00 0.00 0.00 0.00 0.00 0.00 0.01 0.01 0.00 0.00 0.01 0.02 0.03 0.04 0.04 0.06 0.06
0.00 0.00 0.00 0.00 0.00 0.00 0.00 0.00 0.00 0.00 0.00 0.00 0.00 0.00 0.00 0.00 0.00 0.00 0.00 0.00 0.00 0.00 0.00 0.00 0.00 0.00 0.00 0.00 0.00 0.00 0.00 0.00 0.00 0.00 0.01 0.02 0.03 0.05 0.06 0.07 0.08 0.09 0.08
0.00 0.00 0.00 0.00 0.00 0.00 0.00 0.00 0.00 0.00 0.00 0.00 0.00 0.00 0.00 0.00 0.00 0.00 0.00 0.00 0.00 0.00 0.00 0.00 0.00 0.00 0.00 0.00 0.00 0.00 0.00 0.00 0.00 0.00 0.01 0.02 0.02 0.02 0.04 0.07 0.09 0.10 0.08
0.00 0.00 0.00 0.00 0.00 0.00 0.00 0.00 0.00 0.00 0.00 0.00 0.00 0.00 0.00 0.00 0.00 0.00 0.00 0.00 0.00 0.00 0.00 0.00 0.00 0.00 0.00 0.00 0.00 0.01 0.00 0.00 0.00 0.00 0.00 0.01 0.01 0.01 0.03 0.05 0.05 0.05 0.09
0.00 0.00 0.00 0.00 0.00 0.00 0.00 0.00 0.00 0.00 0.00 0.00 0.00 0.00 0.00 0.00 0.00 0.00 0.00 0.00 0.00 0.00 0.00 0.00 0.00 0.00 0.00 0.00 0.00 0.00 0.00 0.00 0.00 0.00 0.00 0.00 0.01 0.00 0.01 0.01 0.03 0.05 0.06
0.00 0.00 0.00 0.00 0.00 0.00 0.00 0.00 0.00 0.00 0.00 0.00 0.00 0.00 0.00 0.00 0.00 0.00 0.00 0.00 0.00 0.00 0.00 0.00 0.00 0.00 0.00 0.00 0.00 0.00 0.00 0.00 0.00 0.00 0.00 0.00 0.00 0.01 0.00 0.02 0.02 0.01 0.04
0.00 0.00 0.00 0.00 0.00 0.00 0.00 0.00 0.00 0.00 0.00 0.00 0.00 0.00 0.00 0.00 0.00 0.00 0.00 0.00 0.00 0.00 0.00 0.00 0.00 0.00 0.00 0.00 0.00 0.00 0.00 0.00 0.00 0.00 0.00 0.00 0.00 0.00 0.01 0.02 0.01 0.00 0.00
0.00 0.00 0.00 0.00 0.00 0.00 0.00 0.00 0.00 0.00 0.00 0.00 0.00 0.00 0.00 0.00 0.00 0.00 0.00 0.00 0.00 0.00 0.00 0.00 0.00 0.00 0.00 0.00 0.00 0.00 0.00 0.00 0.00 0.00 0.00 0.00 0.00 0.01 0.00 0.00 0.00 0.00 0.00
MSLP
1007.26 1008.07 1008.59 1009.14 1009.61 1010.14 1010.26 1010.65 1010.98 1011.32 1011.45 1011.58 1011.73 1011.99 1012.14 1012.07 1012.10 1012.02 1011.88 1012.03 1012.21 1012.48 1012.46 1012.62 1012.76 1012.85 1012.74 1012.45 1012.49 1012.65 1012.80 1012.86 1012.72 1012.44 1012.35 1012.48 1012.62 1012.61 1012.57 1012.78 1012.53 1012.63 1012.53
1007.30 1007.97 1008.52 1009.07 1009.52 1009.69 1010.26 1010.67 1011.02 1011.40 1011.74 1011.79 1011.76 1012.06 1012.33 1012.53 1012.51 1012.46 1012.32 1012.39 1012.54 1012.64 1012.90 1013.27 1013.27 1013.13 1013.05 1013.31 1013.41 1013.40 1013.54 1013.72 1013.28 1013.24 1013.25 1013.21 1012.92 1013.06 1013.04 1012.76 1012.72 1012.77 1012.70
1007.47 1008.06 1008.70 1009.11 1009.20 1009.48 1010.09 1010.66 1011.07 1011.35 1011.54 1011.74 1011.99 1012.23 1012.51 1012.84 1012.88 1012.95 1013.07 1013.08 1013.03 1013.01 1013.07 1013.33 1013.72 1013.94 1014.04 1013.92 1013.62 1013.73 1013.73 1013.91 1013.86 1013.87 1013.88 1013.91 1013.67 1013.49 1013.26 1012.99 1012.86 1012.66 1012.50
1007.48 1007.96 1008.39 1008.75 1009.16 1009.72 1010.27 1010.70 1011.16 1011.49 1011.83 1012.26 1012.61 1012.69 1012.65 1012.75 1012.96 1013.19 1013.21 1013.23 1013.35 1013.42 1013.70 1014.00 1014.42 1014.64 1014.69 1014.61 1014.44 1014.37 1014.28 1014.17 1014.08 1014.07 1014.17 1014.22 1014.03 1013.87 1013.73 1013.38 1012.91 1012.58 1012.33
1007.40 1008.01 1008.62 1008.97 1009.52 1010.16 1010.80 1011.29 1011.66 1011.96 1012.33 1012.58 1012.85 1013.12 1013.09 1013.16 1013.72 1014.01 1013.74 1013.78 1013.89 1014.11 1014.20 1014.47 1014.59 1014.89 1015.10 1015.04 1015.06 1015.16 1015.01 1014.75 1014.53 1014.24 1014.08 1013.95 1014.15 1013.98 1013.87 1013.30 1013.05 1012.53 1012.09
1007.57 1008.24 1009.03 1009.48 1010.12 1010.82 1011.32 1011.76 1012.08 1012.34 1012.57 1012.71 1012.85 1013.11 1013.51 1013.89 1014.22 1014.30 1014.29 1014.00 1014.02 1014.24 1014.32 1014.32 1014.72 1014.95 1015.14 1015.27 1015.41 1015.39 1015.29 1015.15 1014.91 1014.86 1014.63 1014.33 1014.00 1013.80 1013.63 1013.67 1013.55 1013.23 1012.71
1007.66 1008.46 1009.25 1009.93 1010.43 1010.95 1011.31 1011.64 1011.91 1012.20 1012.57 1013.02 1013.13 1013.33 1013.84 1014.44 1014.66 1014.55 1014.48 1014.36 1014.20 1014.40 1014.58 1014.56 1014.42 1014.76 1014.99 1015.14 1015.30 1015.31 1015.13 1015.01 1014.94 1014.75 1014.58 1014.30 1014.04 1013.83 1013.85 1013.76 1013.73 1013.69 1013.20
1007.73 1008.62 1009.40 1010.00 1010.63 1011.12 1011.52 1011.87 1012.20 1012.41 1012.73 1013.01 1013.38 1013.63 1013.92 1014.56 1014.80 1014.91 1014.77 1014.57 1014.34 1014.16 1014.28 1014.22 1014.30 1014.71 1015.03 1015.15 1015.18 1015.24 1015.22 1015.04 1014.66 1014.37 1014.12 1013.84 1013.68 1013.63 1013.73 1013.67 1013.57 1013.42 1012.92
1008.03 1008.72 1009.45 1010.05 1010.68 1011.22 1011.65 1012.10 1012.34 1012.63 1012.84 1013.01 1013.29 1013.81 1013.89 1014.57 1014.87 1015.15 1015.25 1014.97 1014.30 1013.87 1013.72 1013.78 1013.90 1014.27 1014.98 1015.28 1015.28 1015.20 1014.99 1014.67 1014.22 1013.84 1013.73 1013.66 1013.47 1013.28 1013.08 1013.24 1013.16 1013.01 1012.35
1008.07 1008.80 1009.45 1010.07 1010.78 1011.32 1011.92 1012.48 1012.74 1012.81 1013.00 1013.23 1013.44 1013.68 1014.01 1014.45 1014.94 1015.15 1015.35 1015.15 1014.67 1014.30 1013.86 1013.97 1014.04 1014.80 1015.21 1015.33 1015.31 1015.13 1014.75 1014.36 1013.99 1013.95 1013.77 1013.24 1012.76 1012.51 1012.33 1012.35 1012.47 1012.56 1012.28
1008.22 1009.14 1009.81 1010.53 1011.16 1011.65 1012.24 1012.54 1012.68 1012.85 1013.07 1013.30 1013.43 1013.55 1013.71 1014.07 1014.75 1015.02 1015.12 1014.99 1014.86 1014.91 1014.65 1014.35 1014.87 1014.97 1015.10 1015.05 1014.91 1014.77 1014.30 1013.97 1013.87 1013.67 1013.25 1012.73 1012.36 1012.08 1011.93 1011.85 1012.09 1012.36 1012.25
1008.92 1009.76 1010.48 1011.11 1011.41 1012.03 1012.23 1012.49 1012.79 1012.95 1013.11 1013.33 1013.41 1013.33 1013.13 1013.62 1014.12 1014.49 1014.63 1014.77 1014.98 1014.98 1014.62 1014.51 1014.91 1014.89 1014.74 1014.45 1014.23 1013.73 1013.43 1013.36 1013.35 1013.10 1012.75 1012.53 1012.13 1011.91 1011.71 1011.61 1011.50 1011.55 1011.51
1009.12 1010.31 1011.27 1011.91 1012.51 1013.14 1013.27 1012.76 1012.83 1013.01 1013.16 1013.04 1013.08 1013.12 1012.69 1013.20 1013.59 1014.16 1014.58 1014.96 1014.97 1015.05 1014.78 1014.64 1014.39 1014.17 1013.84 1013.44 1013.03 1012.64 1012.64 1012.80 1012.46 1012.31 1012.10 1011.69 1011.50 1011.36 1011.31 1011.10 1010.95 1010.97 1010.93
1009.56 1010.54 1011.52 1012.11 1012.72 1013.06 1013.09 1012.91 1012.81 1013.00 1012.93 1012.75 1012.92 1013.01 1013.27 1013.51 1014.26 1014.62 1014.93 1014.86 1014.66 1014.86 1014.86 1014.46 1013.95 1013.61 1013.02 1012.53 1012.16 1011.94 1011.75 1011.52 1011.32 1011.21 1011.08 1010.81 1010.49 1010.41 1010.45 1010.38 1010.40 1010.21 1010.38
1009.69 1009.81 1010.53 1011.25 1011.80 1012.58 1013.00 1013.05 1012.98 1013.23 1013.19 1013.40 1013.75 1013.92 1014.19 1014.26 1014.87 1014.92 1014.90 1014.83 1014.72 1014.56 1014.52 1014.12 1013.59 1012.92 1012.32 1011.78 1011.35 1011.20 1011.09 1010.93 1010.56 1010.16 1010.04 1009.86 1009.68 1009.50 1009.32 1009.31 1009.35 1009.42 1009.53
1009.80 1009.37 1010.07 1010.72 1011.42 1011.54 1012.18 1013.06 1013.03 1012.92 1013.18 1013.41 1013.71 1013.85 1014.08 1014.30 1014.54 1014.57 1014.45 1014.32 1014.07 1014.22 1014.40 1013.85 1012.92 1012.18 1011.58 1011.06 1010.69 1010.48 1010.27 1009.90 1009.65 1009.49 1009.47 1009.44 1009.27 1008.93 1008.65 1008.60 1008.57 1008.53 1008.55
1009.93 1009.84 1009.90 1010.54 1010.98 1011.30 1011.47 1012.15 1012.86 1013.15 1013.26 1013.53 1013.52 1013.59 1013.98 1014.10 1014.11 1014.05 1013.85 1013.67 1013.57 1014.21 1013.91 1012.71 1011.94 1011.22 1010.68 1010.36 1010.03 1010.09 1010.33 1010.28 1010.16 1009.90 1009.66 1009.32 1008.88 1008.72 1008.59 1008.33 1008.08 1008.16 1007.43
1009.99 1010.20 1010.21 1010.36 1010.43 1010.82 1011.07 1011.45 1011.86 1012.65 1012.91 1013.19 1013.22 1013.26 1013.47 1013.90 1013.70 1013.35 1013.04 1013.66 1013.34 1012.57 1012.19 1011.24 1010.51 1010.30 1010.01 1010.19 1010.39 1010.45 1010.38 1010.04 1009.81 1009.57 1009.13 1008.69 1008.33 1008.01 1007.67 1007.39 1007.23 1007.13 1006.99
1009.78 1010.18 1010.23 1010.32 1010.22 1010.47 1010.80 1011.04 1011.35 1011.55 1011.69 1011.86 1012.31 1012.73 1012.95 1013.08 1012.77 1012.55 1012.46 1013.24 1012.44 1011.75 1010.93 1010.11 1009.85 1009.71 1010.07 1010.38 1010.37 1010.28 1010.05 1009.79 1009.64 1009.15 1008.67 1008.47 1008.13 1007.78 1007.19 1006.72 1006.35 1006.23 1006.26
1009.91 1010.25 1010.31 1010.03 1010.54 1010.78 1010.98 1011.15 1010.90 1010.94 1011.12 1011.27 1011.47 1011.44 1011.70 1012.20 1012.00 1011.79 1010.93 1010.93 1010.96 1010.21 1009.80 1009.69 1009.48 1009.90 1010.29 1010.48 1010.44 1010.15 1009.75 1009.43 1009.24 1008.98 1008.65 1008.32 1007.90 1007.48 1006.75 1006.28 1005.95 1005.52 1005.31
1009.71 1009.83 1010.03 1010.07 1010.29 1010.60 1010.77 1010.78 1010.51 1010.75 1010.94 1010.96 1010.94 1010.81 1010.87 1011.10 1011.03 1010.73 1010.25 1009.79 1009.55 1009.53 1009.42 1009.39 1009.61 1010.08 1010.26 1010.29 1010.15 1009.92 1009.62 1009.37 1009.12 1008.86 1008.91 1008.56 1008.05 1007.40 1006.85 1006.70 1006.25 1005.46 1005.03
1009.41 1009.71 1009.99 1009.98 1010.22 1010.51 1010.46 1010.72 1010.68 1010.71 1010.73 1010.66 1010.55 1010.31 1010.43 1010.75 1010.45 1010.00 1009.46 1009.21 1009.23 1009.22 1009.22 1009.34 1009.77 1009.97 1010.09 1010.17 1010.07 1009.67 1009.44 1009.21 1009.09 1009.11 1008.88 1008.54 1008.28 1007.69 1006.95 1006.49 1005.98 1005.02 1004.75
1009.79 1009.79 1009.83 1010.00 1010.44 1010.68 1010.70 1010.80 1010.45 1010.54 1010.59 1010.60 1010.30 1010.13 1010.12 1009.91 1009.61 1009.37 1009.21 1009.18 1009.15 1009.17 1009.21 1009.15 1008.99 1009.37 1009.87 1009.92 1009.79 1009.51 1009.29 1009.14 1009.08 1009.06 1008.67 1008.21 1007.99 1007.57 1006.90 1006.25 1005.38 1004.90 1004.52
1009.46 1009.58 1009.68 1009.95 1010.43 1010.54 1010.39 1010.40 1010.51 1010.63 1010.52 1010.29 1010.02 1009.88 1009.69 1009.43 1009.26 1009.13 1009.25 1009.18 1009.33 1009.34 1009.19 1008.95 1009.00 1009.43 1009.66 1009.63 1009.37 1009.27 1009.16 1009.21 1009.14 1008.76 1008.31 1008.14 1007.73 1007.19 1006.51 1005.82 1005.24 1005.11 1005.06
1008.81 1009.11 1009.60 1009.94 1010.39 1010.46 1010.46 1010.56 1010.31 1010.29 1010.20 1010.06 1009.91 1009.60 1009.39 1009.31 1009.17 1009.16 1009.19 1009.49 1009.54 1009.38 1009.04 1008.75 1009.03 1009.40 1009.61 1009.49 1009.29 1009.17 1009.14 1009.18 1009.01 1008.75 1008.19 1007.87 1007.31 1006.72 1006.03 1005.76 1005.58 1005.45 1005.32
1008.79 1009.32 1009.67 1009.70 1009.94 1010.24 1010.35 1010.24 1010.27 1010.25 1010.18 1010.05 1009.69 1009.50 1009.43 1009.16 1009.16 1009.30 1009.54 1009.69 1009.69 1009.32 1009.00 1008.63 1008.74 1009.25 1009.47 1009.33 1009.23 1009.16 1009.05 1008.90 1008.61 1008.41 1008.18 1007.67 1007.21 1006.58 1006.25 1006.02 1005.80 1005.58 1005.40
Thickness
5820 5813 5808 5803 5798 5793 5791 5785 5782 5777 5775 5771 5768 5763 5760 5759 5756 5754 5752 5748 5743 5737 5736 5731 5727 5724 5722 5724 5721 5717 5712 5710 5709 5711 5714 5713 5711 5710 5709 5707 5711 5710 5710
5818 5811 5805 5801 5797 5794 5788 5783 5779 5773 5770 5767 5765 5759 5754 5749 5748 5746 5744 5740 5734 5730 5724 5717 5714 5714 5713 5708 5704 5702 5698 5696 5699 5696 5697 5697 5701 5699 5698 5701 5701 5701 5703
5814 5808 5801 5796 5795 5792 5785 5780 5775 5771 5766 5763 5758 5753 5748 5742 5739 5736 5731 5727 5724 5721 5718 5710 5704 5699 5694 5694 5695 5692 5690 5686 5684 5683 5682 5684 5687 5687 5689 5692 5693 5696 5698
5811 5806 5800 5797 5792 5786 5780 5775 5769 5765 5759 5752 5747 5743 5742 5740 5734 5728 5723 5719 5713 5710 5705 5698 5692 5687 5682 5681 5680 5679 5677 5677 5676 5673 5671 5670 5672 5676 5677 5679 5682 5687 5687
5808 5802 5795 5791 5786 5780 5772 5766 5760 5756 5749 5744 5739 5734 5732 5727 5719 5711 5710 5704 5699 5693 5692 5687 5683 5679 5672 5670 5667 5663 5662 5662 5663 5664 5664 5664 5661 5664 5664 5669 5671 5677 5681
5803 5796 5790 5784 5777 5769 5763 5758 5753 5748 5743 5739 5734 5729 5719 5714 5706 5701 5697 5696 5692 5685 5682 5678 5674 5671 5665 5659 5655 5653 5651 5648 5648 5647 5649 5649 5650 5653 5654 5653 5654 5657 5660
5800 5792 5784 5777 5770 5764 5760 5755 5749 5742 5737 5728 5724 5721 5711 5701 5695 5692 5687 5685 5682 5675 5670 5666 5665 5664 5660 5653 5647 5641 5639 5637 5634 5633 5632 5633 5634 5637 5637 5637 5636 5638 5645
5796 5787 5779 5772 5763 5758 5752 5746 5739 5734 5728 5722 5715 5709 5703 5691 5686 5680 5677 5675 5673 5671 5665 5663 5657 5649 5643 5639 5635 5630 5625 5622 5623 5623 5622 5621 5621 5619 5618 5619 5621 5623 5631
5787 5781 5773 5766 5757 5749 5742 5735 5731 5725 5719 5714 5707 5699 5694 5684 5678 5671 5665 5663 5663 5663 5661 5656 5651 5643 5632 5622 5616 5615 5612 5609 5608 5608 5606 5603 5602 5603 5604 5603 5602 5606 5616
5783 5775 5768 5759 5749 5740 5732 5724 5719 5715 5708 5704 5698 5693 5684 5678 5668 5662 5655 5653 5650 5648 5647 5640 5634 5623 5615 5609 5603 5599 5596 5593 5592 5588 5587 5589 5591 5592 5591 5589 5587 5589 5595
5778 5766 5756 5747 5738 5731 5722 5717 5711 5706 5702 5695 5690 5685 5681 5675 5661 5655 5649 5644 5639 5632 5628 5623 5613 5605 5598 5592 5588 5584 5583 5581 5579 5578 5579 5581 5581 5581 5580 5577 5573 5569 5573
5762 5751 5742 5734 5729 5720 5714 5708 5703 5698 5692 5685 5680 5678 5677 5669 5660 5650 5643 5636 5628 5622 5617 5608 5597 5590 5584 5580 5577 5578 5578 5575 5572 5571 5572 5570 5571 5570 5569 5568 5565 5562 5562
5751 5739 5728 5721 5713 5702 5696 5695 5692 5689 5682 5680 5677 5671 5672 5665 5659 5647 5635 5624 5615 5607 5601 5592 5586 5580 5576 5574 5574 5573 5571 5568 5568 5566 5565 5566 5565 5564 5562 5561 5559 5556 5555
5739 5731 5720 5709 5700 5695 5691 5687 5686 5682 5679 5677 5670 5665 5659 5652 5638 5631 5621 5613 5605 5595 5587 5581 5575 5571 5571 5572 5572 5570 5569 5569 5568 5565 5564 5564 5563 5561 5558 5556 5554 5552 5550
5730 5725 5715 5706 5700 5691 5684 5679 5678 5672 5669 5663 5656 5650 5641 5635 5625 5615 5607 5600 5592 5584 5572 5569 5566 5568 5569 5570 5570 5568 5566 5564 5564 5566 5564 5563 5561 5559 5557 5553 5550 5549 5546
5717 5720 5712 5706 5695 5689 5684 5671 5667 5667 5662 5656 5649 5644 5636 5627 5617 5608 5601 5592 5585 5574 5567 5566 5566 5568 5568 5569 5568 5567 5566 5567 5564 5562 5559 5555 5551 5550 5549 5546 5543 5541 5542
5705 5707 5707 5700 5691 5683 5681 5672 5661 5657 5652 5647 5642 5637 5627 5619 5612 5603 5596 5587 5578 5566 5565 5568 5569 5571 5572 5572 5571 5567 5561 5556 5552 5549 5546 5545 5544 5540 5536 5535 5533 5530 5535
5698 5697 5697 5693 5690 5683 5678 5671 5664 5655 5650 5645 5638 5633 5623 5609 5603 5598 5592 5580 5578 5576 5574 5577 5578 5575 5573 5567 5560 5556 5552 5549 5546 5543 5541 5540 5538 5535 5533 5530 5527 5524 5523
5696 5692 5690 5686 5683 5677 5674 5669 5661 5655 5651 5646 5638 5628 5618 5607 5601 5596 5589 5578 5579 5578 5579 5579 5577 5574 5567 5559 5554 5550 5546 5543 5538 5536 5536 5532 5529 5526 5526 5524 5522 5518 5513
5687 5683 5681 5682 5670 5666 5662 5658 5658 5652 5649 5644 5637 5629 5619 5607 5604 5600 5597 5589 5580 5583 5582 5577 5574 5566 5559 5552 5548 5545 5542 5539 5534 5531 5527 5524 5521 5519 5520 5517 5514 5512 5507
5680 5678 5672 5671 5663 5661 5657 5654 5654 5649 5644 5638 5631 5626 5617 5609 5605 5601 5597 5594 5590 5585 5579 5574 5569 5561 5555 5549 5545 5540 5536 5532 5528 5525 5517 5512 5510 5509 5507 5500 5496 5498 5496
5675 5670 5667 5666 5662 5657 5655 5650 5649 5645 5640 5633 5627 5624 5612 5605 5603 5598 5597 5593 5589 5583 5578 5573 5565 5558 5552 5545 5539 5537 5533 5528 5524 5517 5511 5506 5501 5498 5497 5493 5488 5491 5486
5663 5664 5663 5661 5655 5650 5648 5646 5647 5641 5634 5627 5624 5619 5614 5609 5606 5599 5595 5591 5586 5580 5575 5573 5570 5560 5550 5543 5537 5534 5530 5525 5520 5513 5509 5505 5499 5495 5492 5488 5488 5483 5481
5660 5660 5659 5657 5651 5648 5647 5645 5641 5633 5629 5626 5621 5617 5613 5608 5603 5598 5592 5588 5580 5575 5573 5572 5567 5557 5549 5543 5538 5532 5527 5521 5516 5512 5510 5503 5499 5496 5493 5491 5490 5482 5476
5663 5660 5655 5652 5647 5644 5642 5638 5637 5634 5629 5623 5618 5616 5612 5606 5601 5596 5590 5582 5576 5572 5572 5572 5563 5554 5547 5542 5537 5531 5526 5522 5517 5512 5509 5506 5504 5502 5501 5496 5491 5485 5482
5660 5654 5651 5652 5648 5643 5638 5637 5634 5630 5625 5620 5617 5614 5609 5605 5601 5594 5586 5579 5572 5571 5570 5570 5563 5554 5547 5542 5536 5532 5528 5524 5520 5516 5511 5509 5507 5507 5503 5499 5493 5490 5488